Location: Guadalupe River State Park
(29.8761°N, 98.5041°W)
Time: 15:27:05
(UTC-06:00)

LightSail 2 - Visible Passes

Search period start: 22 November 2019 00:00
Search period end: 02 December 2019 00:00
Orbit: 698 x 729 km, 24.0° (Epoch: 22 November)

Date Brightness Start Highest point End Pass type
(mag) Time Alt. Az. Time Alt. Az. Time Alt. Az.
24 Nov 7.7 19:50:46 10° S 19:50:56 10° S 19:50:56 10° S visible
26 Nov 7.0 19:38:34 10° SSW 19:41:19 18° S 19:41:19 18° S visible
27 Nov 7.2 18:41:32 10° SSW 18:44:18 15° SSE 18:47:00 10° SE visible
27 Nov 7.6 20:24:51 10° SW 20:25:59 16° SW 20:25:59 16° SW visible
28 Nov 6.5 19:27:14 10° SW 19:31:30 27° SSE 19:31:38 27° SSE visible
29 Nov 6.8 18:29:45 10° SSW 18:33:40 22° SSE 18:37:16 11° ESE visible
29 Nov 7.1 20:14:02 10° WSW 20:16:15 23° SW 20:16:15 23° SW visible
30 Nov 6.1 19:16:15 10° SW 19:20:54 35° S 19:21:52 32° SE visible
01 Dec 6.5 18:18:32 10° SW 18:23:01 30° SSE 18:27:27 10° ESE visible
01 Dec 6.6 20:03:21 10° WSW 20:06:28 32° SW 20:06:28 32° SW visible
